TimeCDT,TemperatureF,Dew PointF,Humidity,Sea Level PressureIn,VisibilityMPH,Wind Direction,Wind SpeedMPH,Gust SpeedMPH,PrecipitationIn,Events,Conditions,WindDirDegrees,DateUTC
12:53 AM,43.0,41.0,93,30.09,10.0,Calm,Calm,-,N/A,,Clear,0,2013-10-22 05:53:00
1:53 AM,41.0,39.0,93,30.09,6.0,Calm,Calm,-,N/A,,Clear,0,2013-10-22 06:53:00
2:53 AM,39.9,37.9,93,30.08,6.0,Calm,Calm,-,N/A,,Clear,0,2013-10-22 07:53:00
3:28 AM,39.2,37.4,93,30.07,2.5,Calm,Calm,-,N/A,,Scattered Clouds,0,2013-10-22 08:28:00
3:37 AM,39.2,37.4,93,30.07,1.2,Calm,Calm,-,N/A,,Scattered Clouds,0,2013-10-22 08:37:00
3:41 AM,39.2,37.4,93,30.07,0.8,Calm,Calm,-,N/A,,Mist,0,2013-10-22 08:41:00
3:49 AM,37.4,37.4,100,30.07,0.5,Calm,Calm,-,N/A,Fog,Fog,0,2013-10-22 08:49:00
3:53 AM,37.9,36.0,93,30.08,0.5,Calm,Calm,-,N/A,Fog,Fog,0,2013-10-22 08:53:00
4:04 AM,37.4,35.6,93,30.07,1.0,Calm,Calm,-,N/A,,Mist,0,2013-10-22 09:04:00
4:07 AM,37.4,35.6,93,30.07,2.0,Calm,Calm,-,N/A,,Partly Cloudy,0,2013-10-22 09:07:00
4:14 AM,37.4,35.6,93,30.07,4.0,Calm,Calm,-,N/A,,Clear,0,2013-10-22 09:14:00
4:53 AM,36.0,34.0,93,30.07,6.0,Calm,Calm,-,N/A,,Clear,0,2013-10-22 09:53:00
5:53 AM,36.0,35.1,97,30.07,9.0,Calm,Calm,-,N/A,,Clear,0,2013-10-22 10:53:00
6:00 AM,35.6,35.6,100,30.06,2.0,Calm,Calm,-,N/A,,Partly Cloudy,0,2013-10-22 11:00:00
6:03 AM,35.6,35.6,100,30.06,1.0,Calm,Calm,-,N/A,,Mist,0,2013-10-22 11:03:00
6:06 AM,35.6,35.6,100,30.06,0.5,Calm,Calm,-,N/A,Fog,Fog,0,2013-10-22 11:06:00
6:15 AM,37.4,35.6,93,30.07,0.2,Calm,Calm,-,N/A,Fog,Fog,0,2013-10-22 11:15:00
6:30 AM,35.6,35.6,100,30.07,0.5,Calm,Calm,-,N/A,Fog,Fog,0,2013-10-22 11:30:00
6:53 AM,36.0,35.1,97,30.08,0.8,Calm,Calm,-,N/A,,Mist,0,2013-10-22 11:53:00
7:02 AM,37.4,35.6,93,30.07,0.5,Calm,Calm,-,N/A,Fog,Fog,0,2013-10-22 12:02:00
7:22 AM,35.6,35.6,100,30.07,0.2,Calm,Calm,-,N/A,Fog,Fog,0,2013-10-22 12:22:00
7:53 AM,36.0,35.1,97,30.08,0.2,Calm,Calm,-,N/A,Fog,Fog,0,2013-10-22 12:53:00
8:36 AM,37.4,37.4,100,30.07,0.8,Calm,Calm,-,N/A,,Mist,0,2013-10-22 13:36:00
8:43 AM,39.2,39.2,100,30.07,2.0,SSW,3.5,-,N/A,,Mostly Cloudy,200,2013-10-22 13:43:00
8:53 AM,39.9,39.0,97,30.07,6.0,South,3.5,-,N/A,,Scattered Clouds,180,2013-10-22 13:53:00
9:53 AM,45.0,42.1,90,30.06,10.0,SSW,5.8,-,N/A,,Clear,200,2013-10-22 14:53:00
10:53 AM,52.0,43.0,71,30.04,10.0,South,8.1,-,N/A,,Clear,190,2013-10-22 15:53:00
11:53 AM,55.0,44.1,67,30.00,10.0,South,9.2,-,N/A,,Overcast,190,2013-10-22 16:53:00
12:53 PM,60.1,42.1,51,29.96,10.0,SSW,11.5,-,N/A,,Scattered Clouds,210,2013-10-22 17:53:00
1:53 PM,64.0,42.1,45,29.91,10.0,WSW,8.1,-,N/A,,Clear,240,2013-10-22 18:53:00
2:53 PM,66.0,42.1,42,29.89,10.0,WSW,9.2,-,N/A,,Clear,240,2013-10-22 19:53:00
3:53 PM,66.9,42.1,40,29.88,10.0,WNW,8.1,-,N/A,,Clear,300,2013-10-22 20:53:00
4:53 PM,64.9,41.0,42,29.90,10.0,Variable,6.9,16.1,N/A,,Partly Cloudy,0,2013-10-22 21:53:00
5:53 PM,63.0,41.0,45,29.91,10.0,NW,4.6,-,N/A,,Clear,310,2013-10-22 22:53:00
6:53 PM,59.0,41.0,51,29.92,10.0,Calm,Calm,-,N/A,,Clear,0,2013-10-22 23:53:00
7:53 PM,55.9,43.0,62,29.94,10.0,Calm,Calm,-,N/A,,Partly Cloudy,0,2013-10-23 00:53:00
8:53 PM,53.1,44.1,71,29.97,10.0,Calm,Calm,-,N/A,,Partly Cloudy,0,2013-10-23 01:53:00
9:53 PM,53.1,39.9,61,29.99,10.0,Calm,Calm,-,N/A,,Clear,0,2013-10-23 02:53:00
10:53 PM,52.0,39.0,61,30.01,10.0,Variable,3.5,-,N/A,,Clear,0,2013-10-23 03:53:00
11:53 PM,50.0,37.9,63,30.02,10.0,Calm,Calm,-,N/A,,Clear,0,2013-10-23 04:53:00